Regional Weather Roundup
Issued by NWS

Home | Current Version | Previous Version | Text Only | Print | Product List | Glossary Off
Versions: 1 2 3 4 5 6 7 8 9 10 11 12 13 14 15 16 17 18 19 20 21 22 23 24 25 26 27

000
ASUS45 KBOU 260007
RWRCO

WEATHER ROUNDUP FOR COLORADO
NATIONAL WEATHER SERVICE DENVER/BOULDER CO
600 PM MDT THU AUG 25 2016

NOTE: "FAIR" INDICATES FEW OR NO CLOUDS BELOW 12000 FEET WITH NO
SIGNIFICANT WEATHER AND/OR OBSTRUCTIONS TO VISIBILITY.

COZ001>005-013-030-031-260100-
...NORTHWEST COLORADO...

CITY           SKY/WX    TMP DP  RH WIND       PRES   REMARKS
CRAIG          FAIR      69  29  22 W12       30.16F
HAYDEN         FAIR      66  28  24 W10       30.18F
MEEKER         FAIR      67  38  34 SE5       30.19R
MOUNT WERNER   NOT AVBL
STEAMBOAT SPGS FAIR      66  31  26 W9G17     30.20S
WALDEN         CLOUDY    59  32  36 NE7       30.28S
$$

COZ006>008-011-260100-
...WEST CENTRAL VALLEYS...

CITY           SKY/WX    TMP DP  RH WIND       PRES   REMARKS
GRAND JUNCTION RAIN      59  52  77 W13       30.24R
MONTROSE       CLOUDY    60  50  69 NE10      30.22R
EAGLE          LGT RAIN  70  37  30 NW10      30.20R
RIFLE          CLOUDY    65  49  56 VRB3      30.16R
DELTA          TSTM      65  49  56 W23G46    30.21R
NUCLA          PTSUNNY   59  46  63 NW21G29   30.22R
$$

COZ017>023-064>068-260100-
...SOUTHWEST COLORADO...

CITY           SKY/WX    TMP DP  RH WIND       PRES   REMARKS
DURANGO        FAIR      71  37  28 VRB3      30.21S
CORTEZ         FAIR      77  40  26 SW9       30.12S
PAGOSA SPRINGS FAIR      64  37  37 N3        30.29F
TELLURIDE      PTSUNNY   63  35  35 W10       30.36R
WOLF CREEK PAS FAIR      43  32  65 SW6       30.57F
$$

COZ009-010-012-014-032>034-037-058>063-260100-
...CENTRAL COLORADO...

CITY           SKY/WX    TMP DP  RH WIND       PRES   REMARKS
ASPEN          PTSUNNY   57  46  66 S7        30.26R
BUENA VISTA    FAIR      59  38  46 SE8       30.32S
COPPER MTN     FAIR      50  28  43 W7G16     30.52F
BERTHOUD PASS  HAZE      34  21  60 E13       30.56R VSB<1/4 WCI  25
COTTONWOOD PAS FAIR      57  34  41 E5        30.42S
GUNNISON       FAIR      63  37  39 NW8       30.29F
KREMMLING      FAIR      61  36  39 E8        30.27S
LEADVILLE      FAIR      51  33  50 SW7       30.38F
MONARCH PASS   FAIR      46  34  61 SW10      30.64S
SALIDA         FAIR      60  47  62 SE13G18   30.37S
SUNLIGHT       LGT RAIN  43  37  81 S6        30.50R
WILKERSON PASS FAIR      43  34  70 SE5       30.54R
$$

COZ069>075-260100-
...SAN LUIS VALLEY/SANGRE DE CRISTO MOUNTAINS...

CITY           SKY/WX    TMP DP  RH WIND       PRES   REMARKS
ALAMOSA        FAIR      66  37  34 NW8       30.28F
LA VETA PASS   FAIR      50  41  71 N3        30.46S
SAGUACHE       FAIR      59  43  55 SE6       30.33F
$$

COZ035-036-038>040-260100-
...NORTHERN COLORADO FRONT RANGE...

CITY           SKY/WX    TMP DP  RH WIND       PRES   REMARKS
DENVER INTL AP PTSUNNY   59  53  80 E17       30.21F
DMNS CITY PARK   N/A     62  49  60 SE7G16    30.24R
AURORA         PTSUNNY   58  54  86 E9        30.25F
FRONT RANGE AP PTSUNNY   59  55  88 E12       30.24F
ERIE MUNI ARPT FAIR      64  47  53 SE7       30.22R
BOULDER MUN AP FAIR      63  48  59 S6        30.22S
CENTENNIAL     PTSUNNY   59  51  75 E9        30.27F
BROOMFIELD     PTSUNNY   63  52  67 VRB6      30.25F
FORT COLLINS   FAIR      64  48  55 S12       30.19F
LONGMONT       FAIR      66  49  53 SW5       30.24R
$$

COZ041-046-047-076>085-087-088-260100-
...PIKES PEAK/PALMER DIVIDE AND SOUTHERN FOOTHILLS...

CITY           SKY/WX    TMP DP  RH WIND       PRES   REMARKS
COLO. SPRINGS  CLOUDY    58  45  62 VRB6      30.29F
A. F. ACADEMY  PTSUNNY   53  49  86 W5        30.30F
SCHRIEVER AFB  NOT AVBL
ELLICOTT       MIX PCPN N/A N/A N/A N14       30.26F
FALCON         FAIR      52  47  81 N9        30.31F
FORT CARSON    TSTM      56  47  73 N5        30.26S
LIMON          PTSUNNY   60  50  69 W21G35    30.25R
MONUMENT HILL  FAIR      50  45  81 E7        30.33F
TRINIDAD       LGT RAIN  69  46  43 SW10      30.22R
$$

COZ042>045-048>051-090-091-260100-
...NORTHEAST COLORADO...

CITY           SKY/WX    TMP DP  RH WIND       PRES   REMARKS
GREELEY ARPT   FAIR      66  46  48 SW5       30.19F
AKRON          FAIR      71  41  33 SE9       30.19F
BURLINGTON     FAIR      75  42  30 E12       30.19R
WRAY           FAIR      75  39  27 SE12G20   30.17R
STERLING       FAIR      72  45  37 SE6       30.15F
HOLYOKE        FAIR      77  45  31 SE7       30.18S
FORT MORGAN    TSTM      66  43  43 N13G18    30.20R
$$

COZ086-089-092>099-260100-
...SOUTHEAST COLORADO...

CITY           SKY/WX    TMP DP  RH WIND       PRES   REMARKS
PUEBLO         PTSUNNY   77  43  29 NE5       30.18R
LA JUNTA       FAIR      76  54  46 E17       30.14R
LAMAR          FAIR      72  56  57 E12       30.14R
SPRINGFIELD      N/A     67  58  72 E10       30.17R
$$




USA.gov is the U.S. government's official web portal to all federal, state and local government web resources and services.